{"data":{"norad_id":67578,"intl_designator":"2026-016T","name":"STARLINK-36613","alt_names":[],"object_type":"PAYLOAD","status":"ACTIVE","operator":null,"country":"US","launch_date":"2026-01-25","launch_site_code":"AFWTR","launch_vehicle":null,"mission":null,"orbit_class":"UNKNOWN","rcs_meters":null,"size_class":null,"mass_kg":null,"dimensions":null,"purposes":["comms"],"wikipedia_slug":null,"has_3d_model":false,"image_url":null,"decayed_at":null,"tle_current":{"epoch":"2026-05-25T02:43:43.442400Z","epoch_age_seconds":68498,"freshness":"FRESH","line1":"1 67578U 26016T   26145.11369725  .00024565  00000+0  76141-3 0  9993","line2":"2 67578  97.2852 205.4070 0000498  93.8476 266.2824 15.33418688 18572","mean_motion":15.33418688,"eccentricity":4.98e-5,"inclination_deg":97.2852,"raan_deg":205.407,"arg_perigee_deg":93.8476,"mean_anomaly_deg":266.2824,"bstar":0.00076141,"rev_number":1857,"period_min":93.90781599761,"perigee_km":465.2806424261,"apogee_km":465.96228076888,"semimajor_km":6843.7584615975,"source":"CELESTRAK","updated_at":"2026-05-25T13:38:21.616843Z"}}}